Simultaneous Nadir Overpasses (SNOs) Predictions

Prediction of SNOs between NOAA-15 and METOP-C Satellite Orbit:

Table of predicted SNOs for the next 14.0 days since TLE Epoch: 10/8/2022
Index Date (NOAA-15) Time (NOAA-15) Lat,Lon (NOAA-15) SZA (NOAA-15 ) Date (METOP-C) Time (METOP-C) Lat,Lon (METOP-C) SZA (METOP-C ) Distance(km) Time Diff (sec)
1 10/17/2022 11:26:54 -81.06,-133.21 87.36 10/17/2022 11:25:39 -81.05,-133.18 87.40 1.53 75
2 10/17/2022 12:17:22 81.05, 34.37 92.67 10/17/2022 12:16:18 81.06, 34.38 92.64 0.57 64
3 10/17/2022 13:07:55 -81.05,-158.25 87.32 10/17/2022 13:07:00 -81.06,-158.28 87.35 0.84 55
4 10/17/2022 13:58:24 81.06, 8.97 92.68 10/17/2022 13:57:40 81.05, 8.91 92.65 1.30 44
5 10/17/2022 14:48:57 -81.06, 176.34 87.31 10/17/2022 14:48:22 -81.06, 176.25 87.34 1.67 35
6 10/17/2022 15:39:25 81.05, -16.06 92.73 10/17/2022 15:39:01 81.06, -16.19 92.71 2.65 24
7 10/17/2022 16:29:58 -81.05, 151.31 87.27 10/17/2022 16:29:43 -81.06, 151.15 87.28 3.05 15
8 10/17/2022 17:20:28 81.07, -41.84 92.72 10/17/2022 17:20:23 81.06, -41.67 92.72 3.37 5
9 10/17/2022 18:11:01 -81.07, 125.53 87.28 10/17/2022 18:11:05 -81.06, 125.68 87.27 3.05 4
10 10/17/2022 19:01:29 81.06, -66.87 92.76 10/17/2022 19:01:44 81.07, -66.77 92.78 1.81 15
11 10/17/2022 19:52:02 -81.06, 100.50 87.24 10/17/2022 19:52:26 -81.07, 100.58 87.21 1.61 24
12 10/17/2022 20:42:31 81.07, -92.27 92.77 10/17/2022 20:43:06 81.06, -92.24 92.79 1.01 35
13 10/17/2022 21:33:04 -81.07, 75.09 87.22 10/17/2022 21:33:48 -81.06, 75.11 87.20 0.87 44
14 10/17/2022 22:23:32 81.06,-117.30 92.81 10/17/2022 22:24:27 81.07,-117.34 92.84 1.38 55
15 10/17/2022 23:14:05 -81.06, 50.05 87.18 10/17/2022 23:15:09 -81.07, 50.01 87.15 1.46 64



Historial Predications of SNOs between NOAA-15 and METOP-C
